Location: Unspecified
(0.0000°N, 0.0000°E)
Time: 02:46:23
(UTC+00:00)

CZ-3C DEB - Pass Details

Date: 21 February 2026
Orbit: 408 x 32633 km, 21.5° (Epoch: 28 September)

Event Time Altitude Azimuth Distance (km) Brightness Sun altitude
Rises 23:56:46 0° 71° (ENE) 36,624 ? -78.6°
Reaches altitude 10° 01:51:30 10° 75° (ENE) 35,736 ? -63.5°
Maximum altitude 03:12:18 14° 79° (E) 29,710 ? -44.4°
Drops below altitude 10° 04:04:40 10° 85° (E) 23,286 ? -31.6°
Sets 04:35:45 0° 91° (E) 18,645 ? -24.0°
